Northwest River Forecast Center River Conditions Summary
Enter Search Selection
  Forecast Points Only

Minutes since last post:5
Latency (Post Time - Latest Obs Time):5
Click on column header to sort on the field
#IDHSADescriptionStateCountyElevationObservation TimeStageDischargeStatus
0KELW1PQRCOWLITZ - AT KELSOWACOWLITZ22024-06-17 21:01:4512.2 0
1AMFI1PIHSNAKE - AT AMERICAN FALLS DAMIDPOWER42122024-06-18 17:30:006.1111190
2NOXM8MSOCLARK FORK - NOXON RAPIDS DAMMTSANDERS22702024-06-19 06:59:002329.57 0
3CABI1OTXCLARK FORK - CABINET GORGE DAMIDBONNER22602024-06-19 06:59:002172.55 0
4LLKW1OTXSPOKANE - AT LONGLAKEWALINCOLN12992024-06-19 06:59:001535.72 0
5QBYQ2UnkKOOTENAI - KOOTENAY L AT QUEENS BAYBCBR COLUMBIA18002024-06-19 07:00:001744.77 0
6BIRQ2UnkCOLUMBIA - AT BIRCHBANKBCBR COLUMBIA13292024-06-19 07:00:0017.03741600
7CHDW1OTXCHELAN - LAKE CHELAN DAMWACHELAN9952024-06-20 06:59:001097.36 0
8BRNI1BOISNAKE - BROWNLEE DAMIDADAMS18442024-06-20 07:00:002076.66 0
9MCDQ2UnkCOLUMBIA - MICA DAMBCBR COLUMBIA24752024-06-20 09:00:002409.92138480830
10ARDQ2OTXCOLUMBIA - ARROW LAKES (HUGH KEENLEYSIDE DAM)BCBR COLUMBIA14202024-06-20 10:00:001432.06 0
11REVQ2UnkCOLUMBIA - REVELSTOKE DAMBCBR COLUMBIA18802024-06-20 10:00:001876.78 0
12DCDQ2UnkDUNCAN - DUNCAN DAMBCBR COLUMBIA18012024-06-20 10:00:001838.67 0
13SLCQ2UnkSLOCAN - NEAR CRESCENT VALLEYBCBR COLUMBIA14992024-06-20 10:00:006.9362200
14LERI1MSOLEMHI - NEAR LEMHIIDLEMHI49602024-06-20 10:45:003.941770
15EGCO3BOIEAGLE CREEK - ABOVE SKULL CKORBAKER28002024-06-20 10:45:001.584140
16ALRW1SEWNISQUALLY - ALDER RESERVOIRWAPIERCE12102024-06-20 11:00:001205.75 0
17HOPI1OTXPEND OREILLE - LAKE PEND OREILLE NR HOPEIDBONNER20002024-06-20 11:00:002061.78 0
18PRWW1OTXCOLUMBIA - PRIEST RAPIDS DAMWAGRANT4602024-06-20 11:00:00485.44 0
19UBDW1SEWBAKER - UPPER BAKER LAKEWAWHATCOM3932024-06-20 11:00:00726.79 0
20MORW1SEWCEDAR - CHESTER MORSE LAKEWAKING15602024-06-20 11:00:001564.2 0
21BDDI1BOIBOISE - BELOW DIV DAMIDADA28002024-06-20 11:00:008.8230480
22WANW1OTXCOLUMBIA - WANAPUM DAMWAGRANT5702024-06-20 11:00:00568.41 0
23MYDW1PQRCOWLITZ - MAYFIELD RESERVOIRWALEWIS2802024-06-20 11:00:00421.55 0
24SLKW1SEWSULTAN - SPADA LAKEWASNOHOMISH13702024-06-20 11:00:001449.04 0
25MSRW1SEWCOWLITZ - MOSSYROCK RESERVOIRWALEWIS6792024-06-20 11:00:00747.75 0
26CRNW1SEWSNOQUALMIE - NEAR CARNATIONWAKING602024-06-20 11:15:0046.1427520
27UNYO3PDTBURNT - NR HEREFORDORBAKER37582024-06-20 11:15:003.441100
28MFPI1BOIMF PAYETTE - NEAR CROUCHIDBOISE30402024-06-20 11:15:006.564620
29SERO3PDTJOHN DAY - AT SERVICE CKORWHEELER16322024-06-20 11:30:003.7711780
30MILI1PIHSNAKE - AT MILNERIDCASSIA40632024-06-20 11:30:001.8800
31SILO3PQRSILETZ - AT SILETZORLINCOLN1022024-06-20 11:30:003.223840
32PERM8MSOFLATHEAD - AT PERMAMTSANDERS25692024-06-20 11:30:0012.28183680
33NKSW1SEWNOOKSACK - AT FERNDALEWAWHATCOM52024-06-20 11:30:005.3726190
34MORI1BOIMORES CREEK - NR ARROWROCK DAMIDADA31202024-06-20 11:30:002.711700
35SNYI1BOISNAKE - AT NYSSAIDCANYON51702024-06-20 11:30:005.6595120
36PRVO3PDTCROOKED - NR PRINEVILLEORCROOK30712024-06-20 11:30:003.482750
37WNRO3MFRN UMPQUA - AT WINCHESTERORDOUGLAS3722024-06-20 11:30:002.6615010
38HODO3PQRHOOD - NEAR TUCKER BRIDGEORHOOD RIVER3832024-06-20 11:30:003.756650
39DLGM8MSOCLARK FORK - AT DEER LODGEMTPOWELL45002024-06-20 11:30:002.71930
40CHTO3MFRCHETCO - NEAR BROOKINGSORCURRY502024-06-20 11:30:000.522880
41OCUO3PQRWILLAMETTE - AB FALLS AT OR CITYORCLACKAMAS502024-06-20 11:30:0053.58 0
42STHW1OTXSTEHEKIN - AT STEHEKINWACHELAN10992024-06-20 11:30:0020.4918820
43FRMO3PQRTUALATIN - AT FARMINGTONORWASHINGTON1002024-06-20 11:30:004.822510
44NASW1PQRNASELLE - NEAR NASELLEWAPACIFIC242024-06-20 11:30:004.771600
45CALW1SEWCALAWAH - NEAR FORKSWACLALLAM2102024-06-20 11:30:003.252590
46TLMO3PQRWILSON - NEAR TILLAMOOKORTILLAMOOK422024-06-20 11:30:003.983410
47GLBW1SEWSKYKOMISH - NEAR GOLD BARWASNOHOMISH2092024-06-20 11:30:007.3439470
48PRTO3PQRWILLAMETTE - AT PORTLANDORMULTNOMAH22024-06-20 11:30:006.28 0
49COKW1SEWCOWLITZ - NEAR KOSMOSWALEWIS7802024-06-20 11:30:0067.2635300
50AGNO3MFRROGUE - NEAR AGNESORCURRY1132024-06-20 11:30:003.9337450
51PLDI1PIHSF SNAKE - PALISADES DAMIDBONNEVILLE53532024-06-20 11:30:005619.85 0
52SYCO3PQRJOHNSON CREEK - AT SYCAMOREORMULTNOMAH2282024-06-20 11:30:001.3550
53HCDI1PDTSNAKE - AT HELLS CANYON DAMIDADAMS14002024-06-20 11:30:0065.42140880
54COEI1OTXCOEUR D ALENE - COEUR D ALENE LAKEIDKOOTENAI21602024-06-20 11:30:002127.97 0
55NITW1OTXSIMILKAMEEN - NEAR NIGHTHAWKWAOKANOGAN11382024-06-20 11:30:005.4631430
56ARAI1BOISF BOISE - ANDERSON RANCH DAMIDELMORE38802024-06-20 11:30:004194.69 0
57NRKW1SEWNOOKSACK - AT CEDARVILLEWAWHATCOM02024-06-20 11:30:00139.3723260
58SRCW1SEWSKOKOMISH - AT CONFLUENCEWAMASON542024-06-20 11:30:004790
59PLOI1OTXPALOUSE - NEAR POTLATCHIDLATAH24552024-06-20 11:30:005.54390
60KEDW1PDTYAKIMA - KEECHELUS LAKEWAKITTITAS24792024-06-20 11:30:002481.67 0
61DOTW1SEWCHEHALIS - NEAR DOTYWALEWIS3022024-06-20 11:30:00306.741270
62TCHW1PDTWALLA WALLA - NEAR TOUCHETWAWALLA WALLA4052024-06-20 11:30:003.12980
63CASW1PQRCOWLITZ - AT CASTLE ROCKWACOWLITZ202024-06-20 11:30:0034.3774440
64LRWW1PQRLEWIS - AT WOODLANDWACLARK102024-06-20 11:30:0010.13 0
65NSPW1SEWNF SKOKOMISH - NEAR POTLATCHWAMASON632024-06-20 11:30:003.212890
66TILO3MFRS UMPQUA - AT TILLERORDOUGLAS10402024-06-20 11:30:001.391980
67SQUW1SEWSNOQUALMIE - NEAR SNOQUALMIEWAKING1202024-06-20 11:30:005.4622820
68SKBW1SEWNF SKOKOMISH - NEAR LOWER CUSHMAN DAM NEAR POTLATCHWAMASON3282024-06-20 11:30:002.242650
69KADW1PDTKACHESS - KACHESS DAMWAKITTITAS22692024-06-20 11:30:002238.02 0
70SCRO3MFRSTEAMBOAT CREEK - NEAR GLIDEORDOUGLAS11292024-06-20 11:30:000.711320
71KERM8MSOFLATHEAD - SELI’Š KSANKA QLISPE’ DAMMTLAKE27302024-06-20 11:30:002893.18 0
72SRLM8MSOSTILLWATER - NEAR LAWRENCE PARKMTFLATHEAD29532024-06-20 11:45:003.964790
73DSRW1SEWDESCHUTES - NEAR RAINIERWATHURSTON3492024-06-20 11:45:003.34650
74WILW1PQRWILLAPA - NEAR WILLAPAWAPACIFIC42024-06-20 11:45:003.761450
75BONM8MSOBLACKFOOT - NEAR BONNERMTMISSOULA33452024-06-20 11:45:003.1814610
76SNDO3PQRSANDY - SANDYORCLACKAMAS2402024-06-20 11:45:008.8311360
77BEAO3PQRNESTUCCA - NEAR BEAVERORTILLAMOOK432024-06-20 11:45:005.483520
78SRGM8MSOCLARK FORK - AT ST REGISMTMINERAL26002024-06-20 11:45:008.2988440
79ESTO3PQRCLACKAMAS - AT ESTACADAORCLACKAMAS2972024-06-20 11:45:0012.1516200
80SMNI1MSOSALMON - AT SALMONIDLEMHI39112024-06-20 11:45:003.7326880
81MODO3PDTDESCHUTES - AT MOODY NR BIGGSORWASCO1672024-06-20 11:45:002.945360
82PLNM8MSOCLARK FORK - NEAR PLAINSMTSANDERS24492024-06-20 11:45:007.83277750
83AUBW1SEWGREEN - NEAR AUBURNWAKING702024-06-20 11:45:0057.798450
84ENVI1OTXNF COEUR D ALENE - AT ENAVILLEIDSHOSHONE21002024-06-20 11:45:0058.257790
85MCZO3PQRMCKENZIE - NEAR WALTERVILLEORLANE6002024-06-20 11:45:002.8328300
86RCCM8MSOROCK CREEK - NEAR CLINTONMTMISSOULA35192024-06-20 11:45:006.138590
87ISLI1PIHHENRYS FORK - NEAR ISLAND PARK DAMIDFREMONT62252024-06-20 11:45:003.215370
88MYNO3MFRNF COQUILLE - NEAR MYRTLE POINTORCOOS22024-06-20 11:45:004.31320
89HALI1PIHBIG WOOD - AT HAILEYIDBLAINE52952024-06-20 11:45:002.856530
90DRBI1BOIDEADWOOD - BELOW DEADWOOD RESIDVALLEY51922024-06-20 11:45:003.542600
91FISM8MSOFISHER - NEAR LIBBYMTFLATHEAD21342024-06-20 11:45:003.592820
92NEWW1SEWNEWAUKUM - NEAR CHEHALISWALEWIS1902024-06-20 11:45:00193.351540
93SAKW1SEWSAUK - NEAR SAUKWASKAGIT2662024-06-20 11:45:004.8840260
94PVDO3PDTCROOKED - PRINEVILLE RESERVOIRORCROOK32602024-06-20 11:45:003231.73 0
95NFFQ2MSONF FLATHEAD - NEAR FLATHEAD BCBCBR COLUMBIA39682024-06-20 11:45:006.0314030
96PRII1OTXPOTLATCH - BELOW LITTLE POTLATCHIDNEZ PERCE02024-06-20 11:45:005.01360
97OKMW1OTXOKANOGAN - AT MALOTTWAOKANOGAN7832024-06-20 11:45:005.336660
98IPDI1PIHHENRYS FORK - ISLAND PARK DAMIDFREMONT63022024-06-20 11:45:006303.05 0
99TILW1SEWTILTON - NEAR CINEBARWALEWIS6002024-06-20 11:45:003.212900
100WGCM8MSOMF FLATHEAD - NEAR WEST GLACIERMTFLATHEAD31292024-06-20 11:45:003.8739110
101DEDI1BOIDEADWOOD - NEAR LOWMANIDVALLEY53342024-06-20 11:45:003.5 0
102LSDW1OTXLITTLE SPOKANE - AT DARTFORDWASPOKANE15902024-06-20 11:45:002.691820
103SFLN2PIHSALMON FALLS CREEK - NR SAN JACINTONVELKO02024-06-20 11:45:005.981350
104BIGI1BOIBOISE - AT GLENWOOD BRIDGEIDADA26002024-06-20 11:45:006.3722660
105WRAW1SEWWHITE - AT R STREETWAKING1152024-06-20 11:45:00111.7212080
106BITM8MSOBITTERROOT - NEAR MISSOULAMTMISSOULA31102024-06-20 11:45:005.333620
107COQO3MFRCOQUILLE - AT COQUILLEORCOOS232024-06-20 11:45:006.89 0
108FCFM8MSONF FLATHEAD - NEAR COLUMBIA FALLSMTFLATHEAD31452024-06-20 11:45:004.652850
109CAMI1BOIWEISER - NEAR CAMBRIDGEIDWASHINGTON26602024-06-20 11:45:003.62680
110SPEW1SEWSOUTH PRAIRIE - AT SOUTH PRAIRIEWAPIERCE4302024-06-20 11:45:0024.451320
111VICM8MSOBITTERROOT - NEAR VICTORMTRAVALLI33302024-06-20 11:45:006.8422570
112WHBI1MSOSALMON - AT WHITEBIRDIDIDAHO14132024-06-20 11:45:0018.22183890
113CFMM8MSOFLATHEAD - AT COLUMBIA FALLSMTFLATHEAD29782024-06-20 11:45:007.36135840
114MIDI1BOIMF SALMON - MIDDLE FORK LODGEIDCUSTER44802024-06-20 11:45:003.0922540
115BWKI1PIHBIG WOOD - NEAR KETCHUMIDBLAINE62402024-06-20 11:45:005.822350
116WODI1PIHLITTLE WOOD - NEAR CAREYIDBLAINE49912024-06-20 11:45:002.522080
117HAGW1OTXHANGMAN CREEK - AT SPOKANEWASPOKANE17172024-06-20 11:45:001.31270
118PUYW1SEWPUYALLUP - AT PUYALLUPWAPIERCE502024-06-20 11:45:0011.8922480
119THRM8MSOTHOMPSON - NEAR THOMPSON FALLSMTSANDERS24292024-06-20 11:45:003.173120
120THNW1SEWTHUNDER CREEK - NEAR NEWHALEMWAWHATCOM12202024-06-20 11:45:007.356770
121NACW1PDTNACHES - NEAR NACHESWAYAKIMA15502024-06-20 11:45:0014.2515430
122PACI1OTXPARADISE CREEK - AT UNIVERSITY OF IDAHO AT MOSCOWIDLATAH25442024-06-20 11:45:004.0520
123ANTI1PIHHENRYS FORK - AT ST. ANTHONYIDFREMONT49512024-06-20 11:45:003.411050
124COCO3PQRCLACKAMAS - NEAR OREGON CITYORCLACKAMAS152024-06-20 11:45:0024.2916440
125SPOW1OTXSPOKANE - AT SPOKANEWASPOKANE16962024-06-20 11:45:0019.2835600
126SFCM8MSOSF FLATHEAD - NR COLUMBIA FALLSMTFLATHEAD02024-06-20 11:45:007.4445530
127SPRO3PQRMOHAWK - NEAR SPRINGFIELDORLANE4422024-06-20 11:45:001.521290
128MNSW1SEWWYNOOCHEE - NEAR MONTESANOWAGRAYS HARBOR402024-06-20 11:45:0027.654620
129EMMI1BOIPAYETTE - NEAR EMMETTIDGEM24002024-06-20 11:45:004.1331190
130EASI1OTXMOYIE - AT EASTPORTIDBOUNDARY26202024-06-20 11:45:004.968760
131CSDI1BOINF PAYETTE - CASCADE DAMIDVALLEY48282024-06-20 11:45:004827.14 0
132TOTW1PQRTOUTLE - AT TOWER ROAD NEAR SILVER LAKEWACOWLITZ1702024-06-20 11:45:00121.2413130
133CRPW1SEWCHEHALIS - AT PORTERWAGRAYS HARBOR242024-06-20 11:45:0032.2111890
134PIHI1PIHPORTNEUF - AT POCATELLOIDBANNOCK44202024-06-20 11:45:004.311700
135TLYO3PQRCLACKAMAS - THREE LYNXORCLACKAMAS11202024-06-20 11:45:001.3511620
136PORI1OTXKOOTENAI - AT PORTHILLIDBOUNDARY02024-06-20 11:45:0045.97 0
137HHWM8MSOSF FLATHEAD - HUNGRY HORSE DAMMTFLATHEAD35602024-06-20 11:45:003558.81 0
138STRM8MSOST. REGIS - NEAR ST. REGISMTMINERAL26452024-06-20 11:45:002.844060
139RIDI1PIHWILLOW CREEK - RIRIE DAMIDJEFFERSON51192024-06-20 11:45:005112.87 0
140KRBO3MFRILLINOIS - AT KERBYORJOSEPHINE12102024-06-20 11:45:002.121620
141TRSO3PQRTHOMAS CREEK - NEAR SCIOORLINN3802024-06-20 11:45:004.711080
142BCDW1SEWSKOOKUMCHUCK - NEAR BUCODAWATHURSTON1952024-06-20 11:45:00203.761420
143SSUW1SEWSF SKOKOMISH - NEAR UNIONWAMASON1032024-06-20 11:45:000.321900
144LWRI1PIHLITTLE WOOD - LITTLE WOOD DAMIDBLAINE51002024-06-20 11:45:005234.5 0
145TRYM8MSOYAAK - NEAR TROYMTLINCOLN18392024-06-20 11:45:004.449390
146WHRM8MSOWHITEFISH - NEAR KALISPELLMTFLATHEAD29702024-06-20 11:45:002.994510
147AFRI1PIHSNAKE - AMERICAN FALLS RESERVOIRIDPOWER43702024-06-20 11:45:004354.46 0
148PILW1SEWPILCHUCK - NEAR SNOHOMISHWASNOHOMISH02024-06-20 11:45:0010.672750
149FPOM8MSOFLATHEAD - NEAR POLSONMTLAKE26932024-06-20 11:50:009.16180570
150CBAO3PQRCOLUMBIA - AT PORT WESTWARD NR QUINCYORCOLUMBIA-12024-06-20 11:50:004.69 0
151DEEO3MFRDEER CREEK - NEAR ROSEBURGORDOUGLAS6902024-06-20 11:52:002.1840
152PARI1BOIBOISE - NEAR PARMAIDCANYON21962024-06-20 12:00:0010.0521010
153KBDM8MSOKOOTENAI - BELOW LIBBY DAMMTLINCOLN21002024-06-20 12:00:0019.5280780
154TIDO3PQRALSEA - NEAR TIDEWATERORLINCOLN482024-06-20 12:00:002.333020
155ARDW1OTXENTIAT - NEAR ARDENVOIRWACHELAN15612024-06-20 12:00:002.934970
156NISW1SEWNISQUALLY - NEAR NATIONALWAPIERCE14502024-06-20 12:00:005.065830
157WYDW1SEWWYNOOCHEE - WYNOOCHEE DAMWAGRAYS HARBOR8102024-06-20 12:00:00799.52 0
158FOSO3PQRSOUTH SANTIAM - FOSTER DAMORLINN5502024-06-20 12:00:00635.92 0
159PARW1PDTYAKIMA - NEAR PARKERWAYAKIMA8892024-06-20 12:00:001.73640
160FFXW1SEWCARBON - NEAR FAIRFAXWAPIERCE12132024-06-20 12:00:007.343520
161DONO3BOIDONNER UND BLITZEN - NR FRENCHGLENORHARNEY42602024-06-20 12:00:002.511620
162CANO3PQRMOLALLA - NEAR CANBYORCLACKAMAS942024-06-20 12:00:0011.133700
163PDTO3PDTUMATILLA - AT PENDLETONORUMATILLA10502024-06-20 12:00:004.621190
164PACW1SEWCOWLITZ - AT PACKWOODWALEWIS10482024-06-20 12:00:001.919330
165WSRI1BOIWEISER - NEAR WEISERIDWASHINGTON22062024-06-20 12:00:004.613950
166HAHW1SEWGREEN - BELOW HOWARD HANSON DAMWAKING9902024-06-20 12:00:005.647090
167MKDO3PDTMCKAY CREEK - PENDLETONORUMATILLA13332024-06-20 12:00:001312.98 0
168PHIO3PQRMARYS - NEAR PHILOMATHORBENTON2242024-06-20 12:00:003.11830
169WELW1OTXCOLUMBIA - WELLS DAMWADOUGLAS7812024-06-20 12:00:00778.99 0
170LYDM8MSOKOOTENAI - LIBBY DAMMTLINCOLN24592024-06-20 12:00:002440.63 0
171CENW1SEWCHEHALIS - NEAR CENTRALIAWALEWIS1852024-06-20 12:00:00152.945630
172WEII1BOISNAKE - AT WEISERIDWASHINGTON20862024-06-20 12:00:003.71119890
173CGMW1SEWCHEHALIS - NEAR GRAND MOUNDWATHURSTON1242024-06-20 12:00:00130.347740
174HOTI1BOIBRUNEAU - NEAR HOT SPRINGSIDOWYHEE25992024-06-20 12:00:005.835480
175PITW1PDTKLICKITAT - NEAR PITTWAKLICKITAT2892024-06-20 12:00:004.6512350
176JHNO3PDTJOHN DAY - NEAR JOHN DAYORGRANT31312024-06-20 12:00:003.851150
177SKOW1SEWNF SKOKOMISH - BELOW STAIRCASE RAPIDS NEAR HOODSPORTWAMASON7622024-06-20 12:00:003.432340
178CGRO3PQRSF MCKENZIE - COUGAR DAMORLANE12622024-06-20 12:00:001614.42 0
179HHDW1SEWGREEN - HOWARD HANSON DAMWAKING12062024-06-20 12:00:001166.89 0
180TLRW1SEWSF TOLT - TOLT RESERVOIRWAKING17652024-06-20 12:00:001763.68 0
181DWRI1MSONF CLEARWATER - DWORSHAK DAMIDCLEARWATER9952024-06-20 12:00:001599.71 0
182EASW1PDTYAKIMA - AT EASTONWAKITTITAS21352024-06-20 12:00:0047.792070
183AURO3PQRPUDDING - AT AURORAORMARION722024-06-20 12:00:006.723270
184MMRW1SEWWHITE - AT MUD MOUNTAIN DAMWAKING13302024-06-20 12:00:00925.66 0
185RDLO3MFRCOW CREEK - NEAR RIDDLEORDOUGLAS7232024-06-20 12:00:001.381110
186MFNW1SEWMF NOOKSACK - NEAR DEMINGWAWHATCOM5802024-06-20 12:00:003.444350
187TRYO3PDTGRANDE RONDE - TROYORWALLOWA15862024-06-20 12:00:004.5223040
188CWMO3MFRCOW CREEK - NEAR GLENDALEORDOUGLAS10102024-06-20 12:00:000.43410
189HWRI1PIHBIG LOST - AT HOWELL RANCH NEAR CHILLYIDCUSTER66222024-06-20 12:00:002.064950
190ELWW1SEWELWHA - AT MCDONALD BRIDGE NEAR PORT ANGELESWACLALLAM2002024-06-20 12:00:0010.310830
191LGDW1OTXSNAKE - LOWER GRANITE DAMWAWHITMAN7382024-06-20 12:00:00733.26 0
192SCDO3PQRSCOGGINS CREEK - SCOGGINS DAMORWASHINGTON3062024-06-20 12:00:00302.91 0
193LGRW1SEWNISQUALLY - AT LA GRANDEWAPIERCE4902024-06-20 12:00:004.28820
194POWO3MFRSF COQUILLE - AT POWERSORCOOS2202024-06-20 12:00:000.72720
195MCMW1SEWMINERAL CREEK - NEAR MINERALWALEWIS13402024-06-20 12:00:009.061570
196CIYW1SEWCISPUS - NEAR RANDLEWALEWIS12602024-06-20 12:00:0014.599090
197MCMO3PQRS YAMHILL - AT MCMINNVILLEORYAMHILL622024-06-20 12:00:0010.912350
198RRHW1OTXCOLUMBIA - ROCKY REACH DAMWACHELAN7032024-06-20 12:00:00705.07 0
199RODW1SEWSKAGIT - ROSS RESERVOIRWAWHATCOM16052024-06-20 12:00:001574.32 0
200RISW1OTXCOLUMBIA - BLO ROCK ISLAND DAMWADOUGLAS6092024-06-20 12:00:00611.62 0
201CTAW1SEWSKOOKUMCHUCK - AT CENTRALIAWALEWIS1002024-06-20 12:00:00177.622950
202CHJW1OTXCOLUMBIA - CHIEF JOSEPH DAMWADOUGLAS8202024-06-20 12:00:00953.8 0
203GCDW1OTXCOLUMBIA - GRAND COULEE DAMWAGRANT17002024-06-20 12:00:001287 0
204ABOM8MSOCLARK FORK - ABOVE MISSOULAMTMISSOULA31982024-06-20 12:00:003.7232590
205MPLO3PQRSIUSLAW - NEAR MAPLETONORLANE412024-06-20 12:00:003.934460
206NSSW1SEWSF NOOKSACK - AT SAXON BRIDGEWAWHATCOM3802024-06-20 12:00:001.454990
207TRAO3PQRTRASK - TILLAMOOKORTILLAMOOK502024-06-20 12:00:006.522610
208RIGI1MSOLITTLE SALMON - AT RIGGINSIDIDAHO17602024-06-20 12:00:003.998130
209UNDW1PDTWHITE SALMON - NEAR UNDERWOODWAKLICKITAT1132024-06-20 12:00:004.1210730
210LOCI1MSOLOCHSA - NEAR LOWELLIDIDAHO14532024-06-20 12:00:004.4538140
211LMNW1UnkSNAKE - LOWER MONUMENTAL DAMWAWALLA WALLA4592024-06-20 12:00:00537.98 0
212SELI1MSOSELWAY - NEAR LOWELLIDIDAHO15402024-06-20 12:00:005.9453160
213BUSO3BOISILVIES - NEAR BURNSORHARNEY41952024-06-20 12:00:001.61780
214DGGI1PIHTETON - AB S. LEIGH CR NR DRIGGSIDTETON59532024-06-20 12:00:002.738990
215JDAO3PDTCOLUMBIA - JOHN DAY DAMORSHERMAN2682024-06-20 12:00:00263.53 0
216SPDI1OTXCLEARWATER - AT SPALDINGIDNEZ PERCE7702024-06-20 12:00:006.88160160
217IHDW1PDTSNAKE - ICE HARBOR DAMWAFRANKLIN3682024-06-20 12:00:00437.47 0
218LOPO3PQRMF WILLAMETTE - LOOKOUT POINT DAMORLANE7122024-06-20 12:00:00911.47 0
219GSVO3MFRCOW CREEK - GALESVILLE RESERVOIRORDOUGLAS18812024-06-20 12:00:001877.89 0
220TDAO3PDTCOLUMBIA - THE DALLES DAMORWASCO802024-06-20 12:00:00159.03 0
221SNAW1SEWSNOHOMISH - AT SNOHOMISHWASNOHOMISH352024-06-20 12:00:0014.8180000
222LGSW1UnkSNAKE - LITTLE GOOSE DAMWAWHITMAN7022024-06-20 12:00:00634.36 0
223SWRM8MSOSWAN - NEAR BIGFORKMTLAKE30632024-06-20 12:00:003.8320020
224BELM8MSOCLARK FORK - BELOW MISSOULAMTMISSOULA30842024-06-20 12:00:003.4666020
225ALFW1OTXPEND OREILLE - ALBENI FALLS DAMWAPEND OREILLE20502024-06-20 12:00:00311000
226SCOO3PQRSCOGGINS CREEK - NEAR GASTONORWASHINGTON1572024-06-20 12:00:005.01410
227CLFW1PDTNACHES - NEAR CLIFFDELWAYAKIMA22802024-06-20 12:00:0028.058540
228GPRO3PQRMIDDLE SANTIAM - GREEN PETER DAMORLINN10152024-06-20 12:00:00998.73 0
229IMNO3PDTIMNAHA - AT IMNAHAORWALLOWA19682024-06-20 12:00:002.846050
230OKNW1OTXOKANOGAN - AT OROVILLEWAOKANOGAN9002024-06-20 12:00:006.363530
231MNRO3PQRLONG TOM - AT MONROEORBENTON2712024-06-20 12:10:004.33630
232WAUO3PQRCOLUMBIA - AT WAUNAORCLATSOP12024-06-20 12:12:003.85 0
233BFEI1OTXKOOTENAI - AT BONNERS FERRYIDBOUNDARY17002024-06-20 12:15:0048.74 0
234REXI1PIHHENRYS FORK - AT REXBURGIDMADISON48062024-06-20 12:15:005.524780
235ARWO3MFRAPPLEGATE - NEAR WILDERVILLEORJOSEPHINE9502024-06-20 12:15:002.352860
236BERO3BOIMALHEUR - AGENCY VALLEY DAMORMALHEUR33052024-06-20 12:15:003336.58 0
237PRTI1OTXPRIEST - NEAR PRIEST RIVERIDBONNER20902024-06-20 12:15:003.2322170
238MYKO3PDTMCKAY CREEK - NEAR PILOT ROCKORUMATILLA13432024-06-20 12:15:002.51160
239SATW1SEWSATSOP - NEAR SATSOPWAGRAYS HARBOR212024-06-20 12:15:0028.737660
240ANAW1OTXSNAKE - NEAR ANATONEWAASOTIN8072024-06-20 12:15:007.75376350
241DRMM8MSOCLARK FORK - NR DRUMMONDMTGRANITE33792024-06-20 12:15:003.357130
242GVZW4RIWGROS VENTRE - AT ZENITHWYTETON62602024-06-20 12:15:0019.4512800
243APRO3MFRAPPLEGATE - NEAR APPLEGATEORJACKSON12852024-06-20 12:15:001.83020
244TEAI1PIHTETON - NEAR ST. ANTHONYIDFREMONT49702024-06-20 12:15:003.9217140
245SHYI1PIHSNAKE - NEAR SHELLEYIDBINGHAM45992024-06-20 12:15:008.58119220
246RNTW1SEWCEDAR - AT RENTONWAKING152024-06-20 12:15:008.052900
247CLUW1PDTCLE ELUM - CLE ELUM LAKEWAKITTITAS22402024-06-20 12:15:002211.92 0
248WLAO3PQRS YAMHILL - NEAR WILLAMINAORPOLK2362024-06-20 12:15:002.141080
249WARO3BOIMALHEUR - BLO WARM SPRS RES NR RIVERSIDEORMALHEUR33052024-06-20 12:15:005.035030
250MAYW1SEWCOWLITZ - BELOW MAYFIELD DAMWALEWIS2272024-06-20 12:15:0011.6453730
251OGCN2LKNOWYHEE - NR GOLD CKNVELKO61192024-06-20 12:15:000.81190
252SRMO3PQRSANDY - NEAR MARMOTORCLACKAMAS7302024-06-20 12:15:00691.379350
253PRCI1OTXNF COEUR D ALENE - NEAR PRICHARDIDSHOSHONE24852024-06-20 12:15:001.592510
254SNAI1PIHSNAKE - AT BLACKFOOTIDBINGHAM44902024-06-20 12:15:007.3285220
255COTO3PQRCOAST FORK WILLAMETTE - COTTAGE GROVE DAMORLANE8002024-06-20 12:15:003.03830
256UMTW1PDTYAKIMA - AT UMTANUMWAKITTITAS13002024-06-20 12:15:0031.618890
257KIOW1PDTYAKIMA - AT KIONAWAYAKIMA4542024-06-20 12:15:002.9610670
258PRCM8MSOPROSPECT CREEK - AT THOMPSON FALLSMTSANDERS23822024-06-20 12:15:001.741760
259PRDW1OTXCOLUMBIA - BLO PRIEST RAPIDS DAMWAGRANT3882024-06-20 12:15:0015.411151680
260WFBM8MSOWF BITTERROOT - NEAR CONNERMTRAVALLI45812024-06-20 12:15:002.435200
261LNDW1SEWCEDAR - NEAR LANDSBURGWAKING5662024-06-20 12:15:001.534420
262LSTO3PDTLOSTINE - NR LOSTINEORWALLOWA36502024-06-20 12:15:003.62890
263TONW1OTXOKANOGAN - NEAR TONASKETWAOKANOGAN8612024-06-20 12:15:007.4135970
264ECDO3MFRELK CREEK - NEAR DRAINORDOUGLAS6892024-06-20 12:15:000.94120
265SIFI1PIHSNAKE - AB EAGLE ROCK NR IDAHO FALLSIDBONNEVILLE47302024-06-20 12:15:009.63110890
266WCHW1SEWSAUK - ABOVE WHITE CHUCKWASNOHOMISH9302024-06-20 12:15:003.6110910
267LUCI1BOIBOISE - LUCKY PEAK DAMIDADA28402024-06-20 12:15:003054.65 0
268OCDO3PDTOCHOCO CREEK - OCHOCO DAM NR PRINVILLEORCROOK31432024-06-20 12:15:003127.26 0
269EKTO3MFRUMPQUA - NEAR ELKTONORDOUGLAS902024-06-20 12:15:003.6218380
270MLBO3MFRBIG BUTTE CREEK - NEAR MCLEODORJACKSON15262024-06-20 12:15:002.6380
271DARM8MSOBITTERROOT - NEAR DARBYMTRAVALLI39422024-06-20 12:15:003.415310
272TANW1SEWMF SNOQUALMIE - NEAR TANNERWAKING7802024-06-20 12:15:003.4411970
273FSSO3PQRNEHALEM - FOSSORTILLAMOOK332024-06-20 12:15:002.995900
274PESW1OTXWENATCHEE - AT PESHASTINWACHELAN10282024-06-20 12:15:004.4431550
275GIBO3PDTUMATILLA - NEAR GIBBONORUMATILLA18552024-06-20 12:15:002.93750
276BEUO3BOINF MALHEUR - AT BEULAHORMALHEUR32702024-06-20 12:15:002.81870
277BFTI1PIHSNAKE - NEAR BLACKFOOTIDBINGHAM44002024-06-20 12:15:006.4792440
278SLTW1SEWSULTAN - NEAR SULTANWASNOHOMISH2902024-06-20 12:15:005.414630
279WRMO3PDTMALHEUR - WARM SPRINGS DAMORMALHEUR33902024-06-20 12:15:003402.88 0
280DRSW1SEWDUNGENESS - NEAR SEQUIMWACLALLAM5692024-06-20 12:15:003.142950
281GARW1SEWSF SNOQUALMIE - NEAR GARCIAWAKING14482024-06-20 12:15:0011.22480
282ISSW1SEWISSAQUAH CREEK - NEAR MOUTHWAKING362024-06-20 12:15:004.3480
283STII1BOISF CLEARWATER - AT STITESIDIDAHO13002024-06-20 12:15:004.3116360
284CTLI1OTXCOEUR D ALENE - AT CATALDOIDKOOTENAI21002024-06-20 12:15:0033.4710960
285LEOI1OTXKOOTENAI - AT LEONIAIDBOUNDARY17902024-06-20 12:15:0013.47106970
286MROW1SEWSNOHOMISH - NEAR MONROEWASNOHOMISH132024-06-20 12:15:003.4881380
287PWDO3BOIPOWDER - AT BAKERORBAKER34402024-06-20 12:15:002.13860
288ORFI1MSOCLEARWATER - AT OROFINOIDCLEARWATER9912024-06-20 12:15:006.85118690
289MFDO3MFRBEAR CREEK - AT MEDFORDORJACKSON13422024-06-20 12:15:002.73470
290NFNW1SEWNF NOOKSACK - NEAR GLACIERWAWHATCOM12452024-06-20 12:15:002.979220
291TOLW1SEWTOLT - NEAR CARNATIONWAKING3482024-06-20 12:15:005.394320
292FRYW1OTXKETTLE - NEAR FERRYWAFERRY18372024-06-20 12:15:0012.7331050
293BWMI1PIHBIG WOOD - BELOW MAGIC DAM NEAR RICHFIELDIDBLAINE46622024-06-20 12:15:004.68350
294PATW1OTXMETHOW - NEAR PATEROSWAOKANOGAN9002024-06-20 12:15:003.9322940
295ARGW1SEWNF STILLAGUAMISH - NEAR ARLINGTONWASNOHOMISH892024-06-20 12:15:002.777900
296PULW1OTXSF PALOUSE - AT PULLMANWAWHITMAN23262024-06-20 12:15:000.8630
297ORCO3PQRWILLAMETTE - BL FALLS AT OR CITYORCLACKAMAS102024-06-20 12:15:007.74 0
298EGLO3MFRROGUE - NEAR EAGLE POINTORJACKSON12702024-06-20 12:15:004.4531750
299WSNO3MFRS UMPQUA - NEAR WINSTONORDOUGLAS4632024-06-20 12:15:004.023360
300DETO3PQRNORTH SANTIAM - DETROIT DAMORMARION15702024-06-20 12:15:001559.264214760
301LAUW1OTXKETTLE - AT LAURIERWAFERRY14262024-06-20 12:15:007.1154580
302RYGO3MFRROGUE - AT RAYGOLDORJACKSON11222024-06-20 12:15:002.5331960
303CORO3PQRWILLAMETTE - AT CORVALLISORBENTON1922024-06-20 12:15:0010.7357250
304TOPI1PIHPORTNEUF - AT TOPAZIDBANNOCK49182024-06-20 12:15:002.71640
305SATI1OTXST MARIES - NEAR SANTAIDBENEWAH21722024-06-20 12:15:004.451440
306SNQW1SEWNF SNOQUALMIE - NEAR SNOQUALMIE FALLSWAKING11302024-06-20 12:15:003.444850
307GRAO3MFRROGUE - AT GRANTS PASSORJOSEPHINE8802024-06-20 12:15:002.8831160
308WTHW1OTXMETHOW - AT WINTHROPWAOKANOGAN17182024-06-20 12:15:0011.8414660
309LGNO3PDTGRANDE RONDE - NEAR PERRYORUNION29502024-06-20 12:15:001.561410
310CHEI1PIHFALL RIVER - NEAR CHESTERIDFREMONT50522024-06-20 12:15:002.849100
311SWAI1BOISNAKE - BELOW SWAN FALLSIDADA22712024-06-20 12:17:0020.2358680
312SKAW1PQRCOLUMBIA - AT SKAMOKAWAWAWAHKIAKUM12024-06-20 12:18:002.82 0
313ASTO3PQRTONGUE POINT TIDE GAGEORCLATSOP22024-06-20 12:18:000.5 0
314SHNO3PQRCOLUMBIA - AT ST HELENSORCOLUMBIA12024-06-20 12:18:005.35 0
315LOPW1PQRCOLUMBIA - AT LONGVIEWWACOWLITZ12024-06-20 12:18:005.27 0
316VAPW1PQRCOLUMBIA - AT VANCOUVER POPWACLARK22024-06-20 12:18:005.73 0
317CHAO3MFRCHARLESTON TIDEORCOOS02024-06-20 12:18:00-0.82 0
318KLMW1PQRCOLUMBIA RIV AT KALAMAWACOWLITZ02024-06-20 12:18:005.4 0
319KTFW1OTXCOLVILLE - AT KETTLE FALLSWASTEVENS14002024-06-20 12:20:006.092470
320SUVO3PQRLUCKIAMUTE - NEAR SUVERORPOLK1722024-06-20 12:20:004.111900
321VENO3PQRNEHALEM - NR VERNONIAORCOLUMBIA6402024-06-20 12:20:004.23410
322MYPO3MFRSF COQUILLE - AT MYRTLE POINTORCOOS602024-06-20 12:20:004.372170
323OMCN2LKNOWYHEE - NEAR MTN CITYNVELKO55602024-06-20 12:25:004.37760
324HCRO3PQRMF WILLAMETTE - HILLS CREEK DAMORLANE15442024-06-20 12:25:002.584130
325ELKO3MFRELK CREEK - NEAR TRAILORJACKSON14552024-06-20 12:30:002.61220
326FRNO3PQRLONG TOM - FERN RIDGE DAMORLANE3742024-06-20 12:30:001.72540
327JFFO3PQRSANTIAM - AT JEFFERSONORMARION2202024-06-20 12:30:003.1630660
328APLO3MFRAPPLEGATE - APPLEGATE RESERVOIRORJACKSON19902024-06-20 12:30:001979.94 0
329SKRW1SEWSKOOKUMCHUCK - AT SKOOKUMCHUCK RESERVOIRWALEWIS4802024-06-20 12:30:00467.4 1
330SLMO3PQRWILLAMETTE - AT SALEMORMARION1062024-06-20 12:30:006.0997450
331SJMI1OTXST JOE - AT ST MARIESIDBENEWAH21002024-06-20 12:30:0028.17 0
332SALW4RIWSALT - ABV PALISADES RES NR ETNAWYLINCOLN56762024-06-20 12:30:003.1112850
333BCLO3PQRNORTH SANTIAM - AT NIAGARAORLINN10942024-06-20 12:30:003.3315070
334DLLO3PQRTUALATIN - NEAR DILLEYORWASHINGTON1472024-06-20 12:30:0010.32860
335TNAW1PDTTEANAWAY - BELOW FORKSWAKITTITAS23002024-06-20 12:30:0010.961630
336HLKW1PDTYAKIMA - NEAR HORLICKWAKITTITAS17002024-06-20 12:30:0029.5516090
337JLKW4RIWSNAKE - JACKSON LAKE AT DAMWYTETON67282024-06-20 12:30:005.6827900
338VALO3BOIMALHEUR - NEAR VALEORMALHEUR22202024-06-20 12:30:0010.42320
339PACW4RIWPACIFIC CREEK - AT MORANWYTETON67202024-06-20 12:30:005.664610
340DORO3PQRROW - DORENA DAMORLANE8202024-06-20 12:30:002.261880
341JASO3PQRMF WILLAMETTE - AT JASPERORLANE5132024-06-20 12:30:003.0622290
342WSLO3PQRTUALATIN - AT WEST LINNORCLACKAMAS852024-06-20 12:30:003.233250
343VIDO3PQRMCKENZIE - NEAR VIDAORLANE8562024-06-20 12:30:001.7230850
344CONW1SEWSKAGIT - NEAR CONCRETEWASKAGIT1302024-06-20 12:30:0016.98113130
345JKSW4RIWSNAKE - NEAR JACKSONWYTETON59502024-06-20 12:30:00573570
346OWYO3BOIOWYHEE - OWYHEE DAMORMALHEUR24002024-06-20 12:30:002.182670
347ORTW1SEWPUYALLUP - NEAR ORTINGWAPIERCE3532024-06-20 12:30:005.314830
348HARO3PQRWILLAMETTE - AT HARRISBURGORLINN2882024-06-20 12:30:002.452300
349EUGO3PQRWILLAMETTE - AT EUGENEORLANE3902024-06-20 12:30:0010.3434350
350LSMO3PQRLITTLE N SANTIAM - NEAR MEHAMAORMARION6552024-06-20 12:30:003.522490
351HRSI1BOIPAYETTE - NEAR HORSESHOE BENDIDBOISE26262024-06-20 12:30:006.8842610
352PRLI1BOISF PAYETTE - AT LOWMANIDBOISE37902024-06-20 12:30:004.2611420
353MVEW1SEWSKAGIT - NEAR MT VERNONWASKAGIT02024-06-20 12:30:0012.99114710
354SHAW1SEWBAKER - AT CONCRETEWASKAGIT1902024-06-20 12:30:003.0414860
355PALI1PIHSNAKE - NEAR IRWINIDBONNEVILLE53532024-06-20 12:30:009.3139920
356FALO3PQRFALL CREEK - FALL CREEK RESERVOIRORLANE8342024-06-20 12:30:00821.32 0
357BRFI1BOISF BOISE - NR FEATHERVILLEIDELMORE42202024-06-20 12:30:002.858890
358FLGW4RIWSNAKE - AB JACKSON L AT FLAGG RWYTETON68022024-06-20 12:30:003.910520
359WTLO3PQRSOUTH SANTIAM - AT WATERLOOORLINN3702024-06-20 12:30:003.2212300
360PRPI1BOIPAYETTE - NEAR PAYETTEIDPAYETTE21382024-06-20 12:30:005.5324740
361MKNW1SEWNISQUALLY - AT MCKENNAWATHURSTON2852024-06-20 12:30:001.78550
362SSFW1SEWSF STILLAGUAMISH - AT JORDAN ROADWASNOHOMISH1952024-06-20 12:30:006.178690
363BFKW4RIWBUFFALO FK - AB LAVA CR NR MORANWYTETON67732024-06-20 12:30:003.3115330
364GREW4RIWGREYS - AB RES NR ALPINEWYLINCOLN57202024-06-20 12:30:002.7412240
365GORW1SEWSKAGIT - AT NEWHALEMWAWHATCOM4022024-06-20 12:30:0083.1827360
366BTSI1BOIBOISE - NR TWIN SPRINGSIDADA32562024-06-20 12:30:007.1313540
367SMRW1SEWSAMISH - NEAR BURLINGTONWASKAGIT02024-06-20 12:30:004.761040
368CLDI1OTXST JOE - AT CALDERIDSHOSHONE20962024-06-20 12:30:007.2419610
369MADO3BOIMALHEUR - NEAR DREWSEYORHARNEY34792024-06-20 12:30:002.68600
370SRMW1SEWSKAGIT - AT MARBLEMOUNTWASKAGIT3052024-06-20 12:30:003.6539860
371HOPW1OTXPALOUSE - AT HOOPERWAWHITMAN10412024-06-20 12:30:003.851200
372ALBO3PQRWILLAMETTE - AT ALBANYORLINN1672024-06-20 12:30:003.6463220
373TRBO3PQRMCKENZIE - BELOW TRAIL BRIDGE DAMORLINN19802024-06-20 12:30:006.699690
374MLKW1PDTMILL CREEK - NR WALLA WALLAWAWALLA WALLA19962024-06-20 12:30:0013.4480
375UMAO3PDTUMATILLA - NEAR UMATILLAORUMATILLA3302024-06-20 12:30:003.062840
376ALPW4RIWSNAKE - NEAR ALPINEWYLINCOLN56842024-06-20 12:30:006.3880300
377BLUO3PQRBLUE - BLUE RESERVOIRORLANE13572024-06-20 12:30:002.93880
378RAWW1SEWCOWLITZ - AT RANDLEWALEWIS8902024-06-20 12:30:006.1322810
379GOSO3PQRCOAST FORK WILLAMETTE - NEAR GOSHENORLANE4742024-06-20 12:30:001.562490
380HEII1PIHSNAKE - NEAR HEISEIDBONNEVILLE50152024-06-20 12:30:006.58144693
381MEHO3PQRNORTH SANTIAM - AT MEHAMAORMARION6022024-06-20 12:30:003.7217460
382MONO3PDTNF JOHN DAY - AT MONUMENTORGRANT19602024-06-20 12:30:003.977210
383ARLW1SEWSTILLAGUAMISH - NEAR ARLINGTONWASNOHOMISH652024-06-20 12:35:00223580
384CLEW1PDTCLE ELUM - NEAR ROSLYNWAKITTITAS2240 0
385REEO3PQRUMPQUA - AT REEDSPORTORDOUGLAS0 0
386MAKI1PIHBIG LOST - BLO MACKAY RESIDCUSTER594600
387SMKQ2UnkSIMILKAMEEN - NEAR HEDLEYBCBR COLUMBIA01140
388WLSO3PQRWILLAMETTE - AT WILSONVILLEORCLACKAMAS5031000
389ARKI1BOIBOISE - ARROWROCK DAMIDELMORE3275 0
390SHDW1SEWBAKER - LAKE SHANNONWASKAGIT156 0
391KACW1PDTKACHESS - NEAR EASTONWAKITTITAS2269 0
392OWCO3BOIOWYHEE CANAL AT OWYHEE DAMORMALHEUR2500 0
393KEEW1PDTYAKIMA - NEAR MARTINWAKITTITAS2479 0
394RSBO3MFRS UMPQUA - AT ROSEBURGORDOUGLAS41408
395BONO3PQRCOLUMBIA - BONNEVILLE DAMORMULTNOMAH62 0
396RIMW1PDTTIETON - AT TIETON DAMWAYAKIMA2926 0
397BUMW1PDTBUMPING - BELOW BUMPING DAMWAYAKIMA34411.2 0














Loading Hydrograph...